Time,TemperatureF,DewpointF,PressureIn,WindDirection,WindDirectionDegrees,WindSpeedMPH,WindSpeedGustMPH,Humidity,HourlyPrecipIn,Conditions,Clouds,dailyrainin,SoftwareType,DateUTC
2013-05-26 00:02:00,59.0,51.0,-100.00,NNW,337,23.0,30.0,74,-99.99,,,-99.99,,2013-05-26 05:02:00,
2013-05-26 00:12:00,59.0,51.0,-100.00,NNW,346,22.0,31.0,74,-99.99,,,-99.99,,2013-05-26 05:12:00,
2013-05-26 00:22:00,59.0,52.0,-100.00,NNE,16,18.0,24.0,77,-99.99,,,-99.99,,2013-05-26 05:22:00,
2013-05-26 00:32:00,59.0,52.0,-100.00,NNE,30,15.0,24.0,78,-99.99,,,-99.99,,2013-05-26 05:32:00,
2013-05-26 00:42:00,63.0,46.0,-100.00,NNE,21,14.0,84.0,55,-99.99,,,-99.99,,2013-05-26 05:42:00,
2013-05-26 00:52:00,68.0,35.0,-100.00,NNE,17,21.0,38.0,30,-99.99,,,-99.99,,2013-05-26 05:52:00,
2013-05-26 01:01:00,70.0,33.0,-100.00,South,174,4.0,13.0,26,-99.99,,,-99.99,,2013-05-26 06:01:00,
2013-05-26 01:12:00,70.0,32.0,-100.00,South,172,5.0,14.0,25,-99.99,,,-99.99,,2013-05-26 06:12:00,
2013-05-26 01:22:00,68.0,39.0,-100.00,ENE,60,16.0,23.0,34,-99.99,,,-99.99,,2013-05-26 06:22:00,
2013-05-26 01:32:00,64.0,42.0,-100.00,NNE,33,5.0,10.0,44,-99.99,,,-99.99,,2013-05-26 06:32:00,
2013-05-26 01:42:00,64.0,43.0,-100.00,SE,142,4.0,9.0,46,-99.99,,,-99.99,,2013-05-26 06:42:00,
2013-05-26 01:52:00,64.0,41.0,-100.00,East,93,6.0,12.0,43,-99.99,,,-99.99,,2013-05-26 06:52:00,
2013-05-26 02:01:00,64.0,43.0,-100.00,ESE,123,9.0,12.0,45,-99.99,,,-99.99,,2013-05-26 07:01:00,
2013-05-26 02:11:00,61.0,47.0,-100.00,SSE,151,11.0,15.0,60,-99.99,,,-99.99,,2013-05-26 07:11:00,
2013-05-26 02:21:00,63.0,43.0,-100.00,SE,141,10.0,13.0,48,-99.99,,,-99.99,,2013-05-26 07:21:00,
2013-05-26 02:31:00,63.0,45.0,-100.00,SE,143,11.0,15.0,52,-99.99,,,-99.99,,2013-05-26 07:31:00,
2013-05-26 02:42:00,61.0,48.0,-100.00,SSE,160,13.0,17.0,62,-99.99,,,-99.99,,2013-05-26 07:42:00,
2013-05-26 02:52:00,59.0,49.0,-100.00,South,185,10.0,15.0,69,-99.99,,,-99.99,,2013-05-26 07:52:00,
2013-05-26 03:01:00,59.0,48.0,-100.00,SSE,168,9.0,20.0,68,-99.99,,,-99.99,,2013-05-26 08:01:00,
2013-05-26 03:12:00,57.0,49.0,-100.00,South,178,15.0,21.0,74,-99.99,,,-99.99,,2013-05-26 08:12:00,
2013-05-26 03:21:00,55.0,51.0,-100.00,South,178,16.0,21.0,85,-99.99,,,-99.99,,2013-05-26 08:21:00,
2013-05-26 03:32:00,55.0,53.0,-100.00,South,172,17.0,19.0,90,-99.99,,,-99.99,,2013-05-26 08:32:00,
2013-05-26 03:42:00,55.0,52.0,-100.00,South,175,15.0,17.0,89,-99.99,,,-99.99,,2013-05-26 08:42:00,
2013-05-26 03:53:00,55.0,52.0,-100.00,South,178,13.0,18.0,89,-99.99,,,-99.99,,2013-05-26 08:53:00,
2013-05-26 04:01:00,55.0,53.0,-100.00,South,175,14.0,17.0,90,-99.99,,,-99.99,,2013-05-26 09:01:00,
2013-05-26 04:11:00,55.0,52.0,-100.00,South,182,12.0,15.0,88,-99.99,,,-99.99,,2013-05-26 09:11:00,
2013-05-26 04:21:00,57.0,52.0,-100.00,South,186,13.0,18.0,82,-99.99,,,-99.99,,2013-05-26 09:21:00,
2013-05-26 04:33:00,57.0,52.0,-100.00,South,187,13.0,17.0,82,-99.99,,,-99.99,,2013-05-26 09:33:00,
2013-05-26 04:42:00,59.0,50.0,-100.00,South,189,15.0,24.0,71,-99.99,,,-99.99,,2013-05-26 09:42:00,
2013-05-26 04:52:00,63.0,49.0,-100.00,South,188,17.0,23.0,62,-99.99,,,-99.99,,2013-05-26 09:52:00,
2013-05-26 05:02:00,63.0,49.0,-100.00,SSW,197,18.0,24.0,62,-99.99,,,-99.99,,2013-05-26 10:02:00,
2013-05-26 05:12:00,63.0,49.0,-100.00,South,191,14.0,23.0,62,-99.99,,,-99.99,,2013-05-26 10:12:00,
2013-05-26 05:23:00,63.0,50.0,-100.00,SSW,202,17.0,24.0,63,-99.99,,,-99.99,,2013-05-26 10:23:00,
2013-05-26 05:32:00,63.0,51.0,-100.00,SSW,203,18.0,23.0,65,-99.99,,,-99.99,,2013-05-26 10:32:00,
2013-05-26 05:42:00,63.0,52.0,-100.00,SSW,206,17.0,25.0,68,-99.99,,,-99.99,,2013-05-26 10:42:00,
2013-05-26 05:52:00,63.0,52.0,-100.00,SSW,210,20.0,26.0,68,-99.99,,,-99.99,,2013-05-26 10:52:00,
2013-05-26 06:03:00,63.0,51.0,-100.00,SSW,213,21.0,26.0,67,-99.99,,,-99.99,,2013-05-26 11:03:00,
2013-05-26 06:11:00,63.0,52.0,-100.00,SSW,211,17.0,22.0,68,-99.99,,,-99.99,,2013-05-26 11:11:00,
2013-05-26 06:22:00,63.0,52.0,-100.00,SW,215,19.0,22.0,68,-99.99,,,-99.99,,2013-05-26 11:22:00,
2013-05-26 06:32:00,63.0,52.0,-100.00,SW,218,18.0,22.0,69,-99.99,,,-99.99,,2013-05-26 11:32:00,
2013-05-26 06:42:00,63.0,53.0,-100.00,SW,215,19.0,25.0,70,-99.99,,,-99.99,,2013-05-26 11:42:00,
2013-05-26 06:52:00,63.0,53.0,-100.00,SW,215,20.0,24.0,71,-99.99,,,-99.99,,2013-05-26 11:52:00,
2013-05-26 07:02:00,63.0,53.0,-100.00,SSW,210,19.0,23.0,72,-99.99,,,-99.99,,2013-05-26 12:02:00,
2013-05-26 07:12:00,63.0,51.0,-100.00,SW,226,17.0,22.0,65,-99.99,,,-99.99,,2013-05-26 12:12:00,
2013-05-26 07:21:00,63.0,52.0,-100.00,SW,236,15.0,20.0,69,-99.99,,,-99.99,,2013-05-26 12:21:00,
2013-05-26 07:32:00,63.0,53.0,-100.00,SW,231,17.0,22.0,70,-99.99,,,-99.99,,2013-05-26 12:32:00,
2013-05-26 07:42:00,63.0,49.0,-100.00,SW,230,18.0,24.0,62,-99.99,,,-99.99,,2013-05-26 12:42:00,
2013-05-26 07:52:00,63.0,48.0,-100.00,SW,231,17.0,23.0,59,-99.99,,,-99.99,,2013-05-26 12:52:00,
2013-05-26 08:02:00,63.0,50.0,-100.00,SW,230,16.0,24.0,64,-99.99,,,-99.99,,2013-05-26 13:02:00,
2013-05-26 08:11:00,63.0,51.0,-100.00,SW,223,18.0,24.0,66,-99.99,,,-99.99,,2013-05-26 13:11:00,
2013-05-26 08:21:00,63.0,50.0,-100.00,SW,220,17.0,23.0,63,-99.99,,,-99.99,,2013-05-26 13:21:00,
2013-05-26 08:32:00,63.0,50.0,-100.00,SW,219,17.0,30.0,63,-99.99,,,-99.99,,2013-05-26 13:32:00,
2013-05-26 08:42:00,63.0,50.0,-100.00,SW,230,16.0,26.0,63,-99.99,,,-99.99,,2013-05-26 13:42:00,
2013-05-26 08:52:00,63.0,50.0,-100.00,SW,232,13.0,19.0,63,-99.99,,,-99.99,,2013-05-26 13:52:00,
2013-05-26 09:02:00,64.0,52.0,-100.00,SW,215,10.0,17.0,63,-99.99,,,-99.99,,2013-05-26 14:02:00,
2013-05-26 09:11:00,64.0,51.0,-100.00,SW,222,9.0,14.0,61,-99.99,,,-99.99,,2013-05-26 14:11:00,
2013-05-26 09:21:00,66.0,52.0,-100.00,SSW,205,9.0,13.0,61,-99.99,,,-99.99,,2013-05-26 14:21:00,
2013-05-26 09:32:00,66.0,51.0,-100.00,SW,224,8.0,12.0,59,-99.99,,,-99.99,,2013-05-26 14:32:00,
2013-05-26 09:42:00,68.0,50.0,-100.00,SW,229,8.0,13.0,53,-99.99,,,-99.99,,2013-05-26 14:42:00,
2013-05-26 09:52:00,70.0,47.0,-100.00,WSW,242,6.0,10.0,45,-99.99,,,-99.99,,2013-05-26 14:52:00,
2013-05-26 10:01:00,70.0,48.0,-100.00,WSW,257,7.0,9.0,46,-99.99,,,-99.99,,2013-05-26 15:01:00,
2013-05-26 10:12:00,70.0,48.0,-100.00,West,281,6.0,9.0,46,-99.99,,,-99.99,,2013-05-26 15:12:00,
2013-05-26 10:22:00,72.0,46.0,-100.00,West,270,6.0,9.0,40,-99.99,,,-99.99,,2013-05-26 15:22:00,
2013-05-26 10:33:00,72.0,43.0,-100.00,WNW,283,8.0,16.0,36,-99.99,,,-99.99,,2013-05-26 15:33:00,
2013-05-26 10:43:00,73.0,40.0,-100.00,WNW,284,12.0,23.0,30,-99.99,,,-99.99,,2013-05-26 15:43:00,
2013-05-26 10:53:00,73.0,38.0,-100.00,West,279,14.0,22.0,28,-99.99,,,-99.99,,2013-05-26 15:53:00,
2013-05-26 11:03:00,73.0,39.0,-100.00,WNW,287,9.0,14.0,29,-99.99,,,-99.99,,2013-05-26 16:03:00,
2013-05-26 11:12:00,73.0,40.0,-100.00,WNW,303,15.0,25.0,30,-99.99,,,-99.99,,2013-05-26 16:12:00,
2013-05-26 11:23:00,73.0,41.0,-100.00,WNW,290,14.0,24.0,31,-99.99,,,-99.99,,2013-05-26 16:23:00,
2013-05-26 11:33:00,73.0,42.0,-100.00,WNW,285,13.0,22.0,32,-99.99,,,-99.99,,2013-05-26 16:33:00,
2013-05-26 11:42:00,73.0,42.0,-100.00,WNW,293,12.0,20.0,32,-99.99,,,-99.99,,2013-05-26 16:42:00,
2013-05-26 11:52:00,73.0,41.0,-100.00,WNW,303,13.0,21.0,31,-99.99,,,-99.99,,2013-05-26 16:52:00,
2013-05-26 12:02:00,73.0,42.0,-100.00,West,270,11.0,20.0,32,-99.99,,,-99.99,,2013-05-26 17:02:00,
2013-05-26 12:11:00,73.0,42.0,-100.00,WNW,299,13.0,21.0,32,-99.99,,,-99.99,,2013-05-26 17:11:00,
2013-05-26 12:22:00,73.0,41.0,-100.00,WNW,296,15.0,22.0,31,-99.99,,,-99.99,,2013-05-26 17:22:00,
2013-05-26 12:32:00,75.0,42.0,-100.00,WNW,299,15.0,21.0,30,-99.99,,,-99.99,,2013-05-26 17:32:00,
2013-05-26 12:42:00,75.0,42.0,-100.00,WNW,300,12.0,21.0,30,-99.99,,,-99.99,,2013-05-26 17:42:00,
2013-05-26 12:52:00,75.0,42.0,-100.00,WNW,298,11.0,18.0,31,-99.99,,,-99.99,,2013-05-26 17:52:00,
2013-05-26 13:01:00,75.0,41.0,-100.00,WNW,290,12.0,18.0,29,-99.99,,,-99.99,,2013-05-26 18:01:00,
2013-05-26 13:12:00,77.0,40.0,-100.00,WNW,300,10.0,17.0,27,-99.99,,,-99.99,,2013-05-26 18:12:00,
2013-05-26 13:21:00,77.0,40.0,-100.00,NW,305,12.0,19.0,27,-99.99,,,-99.99,,2013-05-26 18:21:00,
2013-05-26 13:32:00,77.0,41.0,-100.00,NW,310,12.0,19.0,28,-99.99,,,-99.99,,2013-05-26 18:32:00,
2013-05-26 13:42:00,77.0,40.0,-100.00,NW,308,11.0,19.0,27,-99.99,,,-99.99,,2013-05-26 18:42:00,
2013-05-26 13:52:00,77.0,42.0,-100.00,NNW,333,11.0,17.0,29,-99.99,,,-99.99,,2013-05-26 18:52:00,
2013-05-26 14:01:00,79.0,43.0,-100.00,WNW,287,9.0,16.0,28,-99.99,,,-99.99,,2013-05-26 19:01:00,
2013-05-26 14:11:00,79.0,43.0,-100.00,West,266,5.0,11.0,28,-99.99,,,-99.99,,2013-05-26 19:11:00,
2013-05-26 14:22:00,79.0,43.0,-100.00,WSW,254,5.0,12.0,28,-99.99,,,-99.99,,2013-05-26 19:22:00,
2013-05-26 14:32:00,79.0,42.0,-100.00,West,269,5.0,12.0,27,-99.99,,,-99.99,,2013-05-26 19:32:00,
2013-05-26 14:42:00,81.0,39.0,-100.00,SW,219,8.0,13.0,23,-99.99,,,-99.99,,2013-05-26 19:42:00,
2013-05-26 14:52:00,81.0,38.0,-100.00,WSW,244,6.0,17.0,22,-99.99,,,-99.99,,2013-05-26 19:52:00,
2013-05-26 15:02:00,81.0,37.0,-100.00,SSW,204,9.0,19.0,21,-99.99,,,-99.99,,2013-05-26 20:02:00,
2013-05-26 15:11:00,81.0,37.0,-100.00,SW,216,7.0,19.0,21,-99.99,,,-99.99,,2013-05-26 20:11:00,
2013-05-26 15:21:00,81.0,38.0,-100.00,NW,317,4.0,16.0,22,-99.99,,,-99.99,,2013-05-26 20:21:00,
2013-05-26 15:32:00,82.0,40.0,-100.00,WNW,289,5.0,15.0,22,-99.99,,,-99.99,,2013-05-26 20:32:00,
2013-05-26 15:42:00,81.0,37.0,-100.00,SSW,211,9.0,21.0,21,-99.99,,,-99.99,,2013-05-26 20:42:00,
2013-05-26 15:52:00,81.0,37.0,-100.00,SSW,212,9.0,20.0,21,-99.99,,,-99.99,,2013-05-26 20:52:00,
2013-05-26 16:02:00,79.0,36.0,-100.00,SSW,210,10.0,22.0,21,-99.99,,,-99.99,,2013-05-26 21:02:00,
2013-05-26 16:11:00,79.0,38.0,-100.00,SW,217,9.0,16.0,23,-99.99,,,-99.99,,2013-05-26 21:11:00,
2013-05-26 16:22:00,79.0,38.0,-100.00,SW,221,6.0,15.0,23,-99.99,,,-99.99,,2013-05-26 21:22:00,
2013-05-26 16:33:00,81.0,37.0,-100.00,SW,236,13.0,22.0,21,-99.99,,,-99.99,,2013-05-26 21:33:00,
2013-05-26 16:43:00,81.0,35.0,-100.00,WSW,245,10.0,17.0,19,-99.99,,,-99.99,,2013-05-26 21:43:00,
2013-05-26 16:53:00,81.0,36.0,-100.00,SW,218,9.0,19.0,20,-99.99,,,-99.99,,2013-05-26 21:53:00,
2013-05-26 17:02:00,81.0,36.0,-100.00,SW,229,15.0,23.0,20,-99.99,,,-99.99,,2013-05-26 22:02:00,
2013-05-26 17:12:00,82.0,35.0,-100.00,SSW,213,9.0,17.0,18,-99.99,,,-99.99,,2013-05-26 22:12:00,
2013-05-26 17:23:00,82.0,35.0,-100.00,SSW,209,9.0,17.0,18,-99.99,,,-99.99,,2013-05-26 22:23:00,
2013-05-26 17:33:00,81.0,33.0,-100.00,WSW,238,9.0,18.0,18,-99.99,,,-99.99,,2013-05-26 22:33:00,
2013-05-26 17:42:00,82.0,33.0,-100.00,SSW,213,9.0,17.0,17,-99.99,,,-99.99,,2013-05-26 22:42:00,
2013-05-26 17:53:00,82.0,32.0,-100.00,SW,233,4.0,15.0,16,-99.99,,,-99.99,,2013-05-26 22:53:00,
2013-05-26 18:02:00,84.0,33.0,-100.00,WSW,257,4.0,15.0,16,-99.99,,,-99.99,,2013-05-26 23:02:00,
2013-05-26 18:12:00,81.0,35.0,-100.00,SW,216,8.0,21.0,19,-99.99,,,-99.99,,2013-05-26 23:12:00,
2013-05-26 18:22:00,79.0,38.0,-100.00,SSW,204,12.0,21.0,23,-99.99,,,-99.99,,2013-05-26 23:22:00,
2013-05-26 18:32:00,79.0,38.0,-100.00,South,189,10.0,19.0,23,-99.99,,,-99.99,,2013-05-26 23:32:00,
2013-05-26 18:43:00,79.0,38.0,-100.00,SSW,194,10.0,19.0,23,-99.99,,,-99.99,,2013-05-26 23:43:00,
2013-05-26 18:51:00,79.0,38.0,-100.00,SSW,212,12.0,21.0,23,-99.99,,,-99.99,,2013-05-26 23:51:00,
2013-05-26 19:02:00,79.0,38.0,-100.00,SSW,207,9.0,18.0,23,-99.99,,,-99.99,,2013-05-27 00:02:00,
2013-05-26 19:11:00,79.0,38.0,-100.00,SSW,196,12.0,21.0,23,-99.99,,,-99.99,,2013-05-27 00:11:00,
2013-05-26 19:21:00,79.0,39.0,-100.00,South,191,10.0,16.0,24,-99.99,,,-99.99,,2013-05-27 00:21:00,
2013-05-26 19:32:00,79.0,39.0,-100.00,South,191,10.0,16.0,24,-99.99,,,-99.99,,2013-05-27 00:32:00,
2013-05-26 19:42:00,79.0,39.0,-100.00,SSW,212,10.0,15.0,24,-99.99,,,-99.99,,2013-05-27 00:42:00,
2013-05-26 19:52:00,79.0,38.0,-100.00,SSW,201,9.0,18.0,23,-99.99,,,-99.99,,2013-05-27 00:52:00,
2013-05-26 20:01:00,79.0,37.0,-100.00,SSW,201,9.0,19.0,22,-99.99,,,-99.99,,2013-05-27 01:01:00,
2013-05-26 20:11:00,79.0,37.0,-100.00,SSW,209,12.0,18.0,22,-99.99,,,-99.99,,2013-05-27 01:11:00,
2013-05-26 20:22:00,79.0,37.0,-100.00,SSW,212,10.0,15.0,22,-99.99,,,-99.99,,2013-05-27 01:22:00,
2013-05-26 20:31:00,79.0,37.0,-100.00,SW,220,8.0,12.0,22,-99.99,,,-99.99,,2013-05-27 01:31:00,
2013-05-26 20:42:00,79.0,37.0,-100.00,SSW,200,9.0,14.0,22,-99.99,,,-99.99,,2013-05-27 01:42:00,
2013-05-26 20:52:00,77.0,35.0,-100.00,SSW,211,11.0,15.0,22,-99.99,,,-99.99,,2013-05-27 01:52:00,
2013-05-26 21:01:00,77.0,35.0,-100.00,SSW,209,8.0,13.0,22,-99.99,,,-99.99,,2013-05-27 02:01:00,
2013-05-26 21:11:00,77.0,35.0,-100.00,SSW,208,11.0,16.0,22,-99.99,,,-99.99,,2013-05-27 02:11:00,
2013-05-26 21:21:00,77.0,34.0,-100.00,SSW,207,11.0,18.0,21,-99.99,,,-99.99,,2013-05-27 02:21:00,
2013-05-26 21:32:00,77.0,34.0,-100.00,SSW,211,12.0,16.0,21,-99.99,,,-99.99,,2013-05-27 02:32:00,
2013-05-26 21:42:00,77.0,34.0,-100.00,SSW,208,13.0,18.0,21,-99.99,,,-99.99,,2013-05-27 02:42:00,
2013-05-26 21:52:00,77.0,34.0,-100.00,SSW,209,10.0,17.0,21,-99.99,,,-99.99,,2013-05-27 02:52:00,
2013-05-26 22:02:00,77.0,34.0,-100.00,SW,230,16.0,18.0,21,-99.99,,,-99.99,,2013-05-27 03:02:00,
2013-05-26 22:11:00,77.0,34.0,-100.00,WSW,239,11.0,15.0,21,-99.99,,,-99.99,,2013-05-27 03:11:00,
2013-05-26 22:21:00,75.0,34.0,-100.00,WSW,243,12.0,16.0,22,-99.99,,,-99.99,,2013-05-27 03:21:00,
2013-05-26 22:33:00,75.0,34.0,-100.00,SW,226,10.0,16.0,22,-99.99,,,-99.99,,2013-05-27 03:33:00,
2013-05-26 22:43:00,75.0,35.0,-100.00,SSW,192,9.0,17.0,23,-99.99,,,-99.99,,2013-05-27 03:43:00,
2013-05-26 22:53:00,73.0,41.0,-100.00,South,185,14.0,23.0,31,-99.99,,,-99.99,,2013-05-27 03:53:00,
2013-05-26 23:02:00,73.0,43.0,-100.00,South,183,11.0,18.0,34,-99.99,,,-99.99,,2013-05-27 04:02:00,
2013-05-26 23:12:00,72.0,45.0,-100.00,South,179,12.0,20.0,39,-99.99,,,-99.99,,2013-05-27 04:12:00,
2013-05-26 23:23:00,72.0,48.0,-100.00,South,176,10.0,17.0,43,-99.99,,,-99.99,,2013-05-27 04:23:00,
2013-05-26 23:33:00,72.0,50.0,-100.00,South,183,9.0,15.0,47,-99.99,,,-99.99,,2013-05-27 04:33:00,
2013-05-26 23:43:00,70.0,52.0,-100.00,South,186,7.0,14.0,53,-99.99,,,-99.99,,2013-05-27 04:43:00,
2013-05-26 23:52:00,70.0,52.0,-100.00,South,187,9.0,16.0,54,-99.99,,,-99.99,,2013-05-27 04:52:00,